Weather History for KSMS - September, 2012

Change the Weather History Date:

Sunday, September 2, 2012

  Actual Average (WUND) Record (WUND)
Temperature  
Mean Temperature 83 °F -  
Max Temperature 93 °F - - (-1)
Min Temperature 73 °F - - (-1)
Cooling Degree Days 18    
Growing Degree Days 33 (Base 50)    
Moisture  
Dew Point 75 °F    
Average Humidity 79    
Maximum Humidity 100    
Minimum Humidity 49    
Precipitation  
Precipitation 0.00 in - - ()
Sea Level Pressure  
Sea Level Pressure 30.02 in    
Wind  
Wind Speed 2 mph (WSW)    
Max Wind Speed 12 mph    
Max Gust Speed -    
Visibility 9 miles    
Events      
Averages and records for this station are not official NWS values.
T = Trace of Precipitation, MM = Missing Value Source: NWS Daily Summary

Daily Weather History Graph

Daily Weather History Graph

Search for Another Location

Airport or City:

Trip Planner

Search our weather history database for the weather conditions in past years. The results will help you decide how hot, cold, wet, or windy it might be!

Date:

Astronomy

Sep. 02, 2012 Rise Set
Actual Time 6:56 AM EDT 7:45 PM EDT
Civil Twilight 6:30 AM EDT 8:10 PM EDT
Nautical Twilight 6:00 AM EDT 8:40 PM EDT
Astronomical Twilight 5:29 AM EDT 9:11 PM EDT
Moon 8:42 PM EDT (9/2) 8:53 AM EDT (9/2)
Length of Visible Light 13h 40m
Length of Day
12h 49m
Waning Gibbous, 95% of the Moon is Illuminated
Sep 2
Waning Gibbous
Sep 8
Last Quarter
Sep 15
New
Sep 22
First Quarter
Sep 29
Full

Hourly Weather History & Observations

Time (EDT) Temp. Heat Index Dew Point Humidity Pressure Visibility Wind Dir Wind Speed Gust Speed Precip Events Conditions
12:15 AM 78.8 °F - 78.8 °F 100% 30.07 in 10.0 mi WSW 4.6 mph - N/A   Clear
12:35 AM 78.8 °F - 77.0 °F 94% 30.07 in 10.0 mi Calm Calm - N/A   Clear
12:55 AM 78.8 °F - 78.8 °F 100% 30.06 in 10.0 mi Calm Calm - N/A   Clear
1:15 AM 77.0 °F - 77.0 °F 100% 30.06 in 10.0 mi WSW 3.5 mph - N/A   Clear
1:35 AM 77.0 °F - 77.0 °F 100% 30.06 in 10.0 mi Calm Calm - N/A   Clear
1:55 AM 77.0 °F - 77.0 °F 100% 30.06 in 10.0 mi Calm Calm - N/A   Clear
2:15 AM 77.0 °F - 77.0 °F 100% 30.06 in 10.0 mi Calm Calm - N/A   Clear
2:35 AM 77.0 °F - 77.0 °F 100% 30.06 in 10.0 mi Calm Calm - N/A   Clear
2:55 AM 77.0 °F - 77.0 °F 100% 30.05 in 10.0 mi Calm Calm - N/A   Clear
3:15 AM 77.0 °F - 77.0 °F 100% 30.05 in 10.0 mi Calm Calm - N/A   Clear
3:35 AM 77.0 °F - 77.0 °F 100% 30.04 in 10.0 mi Calm Calm - N/A   Clear
4:15 AM 75.2 °F - 75.2 °F 100% 30.04 in 9.0 mi SW 3.5 mph - N/A   Clear
4:35 AM 75.2 °F - 75.2 °F 100% 30.04 in 8.0 mi Calm Calm - N/A   Clear
4:55 AM 75.2 °F - 75.2 °F 100% 30.03 in 7.0 mi Calm Calm - N/A   Clear
5:15 AM 75.2 °F - 75.2 °F 100% 30.04 in 7.0 mi Calm Calm - N/A   Clear
5:35 AM 75.2 °F - 75.2 °F 100% 30.04 in 7.0 mi Calm Calm - N/A   Clear
5:55 AM 73.4 °F - 73.4 °F 100% 30.04 in 6.0 mi Calm Calm - N/A   Clear
6:15 AM 73.4 °F - 73.4 °F 100% 30.04 in 7.0 mi Calm Calm - N/A   Clear
6:35 AM 73.4 °F - 73.4 °F 100% 30.05 in 7.0 mi Calm Calm - N/A   Clear
6:55 AM 73.4 °F - 73.4 °F 100% 30.05 in 7.0 mi Calm Calm - N/A   Clear
7:15 AM 73.4 °F - 73.4 °F 100% 30.05 in 6.0 mi SW 3.5 mph - N/A   Clear
7:35 AM 75.2 °F - 75.2 °F 100% 30.05 in 7.0 mi Calm Calm - N/A   Clear
7:55 AM 75.2 °F - 75.2 °F 100% 30.05 in 8.0 mi Calm Calm - N/A   Clear
8:15 AM 77.0 °F - 77.0 °F 100% 30.06 in 10.0 mi Calm Calm - N/A   Clear
8:35 AM 78.8 °F - 75.2 °F 89% 30.06 in 10.0 mi WSW 3.5 mph - N/A   Clear
8:55 AM 80.6 °F 86.2 °F 75.2 °F 84% 30.06 in 10.0 mi Calm Calm - N/A   Clear
9:15 AM 82.4 °F 89.5 °F 75.2 °F 79% 30.06 in 10.0 mi Calm Calm - N/A   Clear
9:35 AM 84.2 °F 92.3 °F 75.2 °F 74% 30.06 in 10.0 mi Calm Calm - N/A   Clear
9:55 AM 84.2 °F 92.3 °F 75.2 °F 74% 30.06 in 10.0 mi Calm Calm - N/A   Clear
10:15 AM 86.0 °F 95.1 °F 75.2 °F 70% 30.06 in 10.0 mi Calm Calm - N/A   Clear
10:35 AM 86.0 °F 95.1 °F 75.2 °F 70% 30.07 in 10.0 mi Calm Calm - N/A   Clear
10:55 AM 89.6 °F 99.8 °F 75.2 °F 62% 30.07 in 10.0 mi Calm Calm - N/A   Clear
11:15 AM 89.6 °F 99.8 °F 75.2 °F 62% 30.07 in 10.0 mi Calm Calm - N/A   Clear
11:35 AM 91.4 °F 102.5 °F 75.2 °F 59% 30.07 in 10.0 mi Calm Calm - N/A   Clear
11:55 AM 91.4 °F 100.1 °F 73.4 °F 55% 30.06 in 10.0 mi West 5.8 mph - N/A   Clear
12:15 PM 91.4 °F 98.4 °F 71.6 °F 52% 30.06 in 10.0 mi WSW 4.6 mph - N/A   Clear
12:35 PM 91.4 °F 100.1 °F 73.4 °F 55% 30.05 in 10.0 mi West 6.9 mph - N/A   Clear
12:55 PM 91.4 °F 100.1 °F 73.4 °F 55% 30.05 in 10.0 mi WNW 3.5 mph - N/A   Partly Cloudy
1:15 PM 91.4 °F 100.1 °F 73.4 °F 55% 30.04 in 10.0 mi West 5.8 mph - N/A   Partly Cloudy
1:35 PM 91.4 °F 98.4 °F 71.6 °F 52% 30.03 in 10.0 mi WSW 5.8 mph - N/A   Clear
1:55 PM 93.2 °F 100.5 °F 71.6 °F 49% 30.02 in 10.0 mi SSW 8.1 mph - N/A   Partly Cloudy
2:15 PM 93.2 °F 102.4 °F 73.4 °F 52% 30.01 in 10.0 mi WSW 5.8 mph - N/A   Partly Cloudy
2:35 PM 91.4 °F 100.1 °F 73.4 °F 55% 30.00 in 10.0 mi SW 11.5 mph - N/A   Partly Cloudy
2:55 PM 93.2 °F 100.5 °F 71.6 °F 49% 29.98 in 10.0 mi SW 9.2 mph - N/A   Clear
3:15 PM 93.2 °F 100.5 °F 71.6 °F 49% 29.97 in 10.0 mi SW 9.2 mph - N/A   Clear
3:35 PM 93.2 °F 102.4 °F 73.4 °F 52% 29.97 in 10.0 mi SW 4.6 mph - N/A   Clear
3:55 PM 93.2 °F 100.5 °F 71.6 °F 49% 29.96 in 10.0 mi West 5.8 mph - N/A   Partly Cloudy
4:15 PM 93.2 °F 100.5 °F 71.6 °F 49% 29.96 in 10.0 mi WSW 5.8 mph - N/A   Partly Cloudy
4:35 PM 93.2 °F 100.5 °F 71.6 °F 49% 29.96 in 10.0 mi WSW 9.2 mph - N/A   Clear
4:55 PM 93.2 °F 100.5 °F 71.6 °F 49% 29.95 in 10.0 mi SW 6.9 mph - N/A   Partly Cloudy
5:15 PM 93.2 °F 102.4 °F 73.4 °F 52% 29.95 in 10.0 mi SW 6.9 mph - N/A   Partly Cloudy
5:35 PM 91.4 °F 98.4 °F 71.6 °F 52% 29.95 in 10.0 mi SW 9.2 mph - N/A   Clear
5:55 PM 91.4 °F 100.1 °F 73.4 °F 55% 29.95 in 10.0 mi SW 5.8 mph - N/A   Partly Cloudy
6:15 PM 89.6 °F 96.2 °F 71.6 °F 55% 29.95 in 10.0 mi SW 6.9 mph - N/A   Partly Cloudy
6:35 PM 87.8 °F 95.6 °F 73.4 °F 62% 29.96 in 10.0 mi SW 3.5 mph - N/A   Clear
6:55 PM 86.0 °F 93.4 °F 73.4 °F 66% 29.96 in 10.0 mi SSW 3.5 mph - N/A   Clear
7:15 PM 84.2 °F 90.9 °F 73.4 °F 70% 29.97 in 10.0 mi West 3.5 mph - N/A   Clear
7:35 PM 84.2 °F 92.3 °F 75.2 °F 74% 29.98 in 10.0 mi Calm Calm - N/A   Clear
7:55 PM 82.4 °F 89.5 °F 75.2 °F 79% 29.99 in 10.0 mi WNW 3.5 mph - N/A   Clear
8:15 PM 82.4 °F 88.2 °F 73.4 °F 74% 29.99 in 10.0 mi West 4.6 mph - N/A   Clear
8:35 PM 82.4 °F 88.2 °F 73.4 °F 74% 29.98 in 10.0 mi Calm Calm - N/A   Clear
8:55 PM 80.6 °F 86.2 °F 75.2 °F 84% 29.99 in 10.0 mi Calm Calm - N/A   Clear
9:15 PM 78.8 °F - 75.2 °F 89% 29.99 in 10.0 mi Calm Calm - N/A   Clear
9:35 PM 78.8 °F - 77.0 °F 94% 29.99 in 10.0 mi Calm Calm - N/A   Clear
9:55 PM 77.0 °F - 77.0 °F 100% 30.00 in 10.0 mi Calm Calm - N/A   Clear
10:15 PM 77.0 °F - 77.0 °F 100% 30.00 in 10.0 mi Calm Calm - N/A   Clear
10:35 PM 77.0 °F - 77.0 °F 100% 30.00 in 10.0 mi Calm Calm - N/A   Partly Cloudy
10:55 PM 77.0 °F - 77.0 °F 100% 30.01 in 8.0 mi Calm Calm - N/A   Clear
11:15 PM 77.0 °F - 77.0 °F 100% 30.01 in 10.0 mi Calm Calm - N/A   Clear
11:35 PM 77.0 °F - 77.0 °F 100% 30.02 in 5.0 mi Calm Calm - N/A   Clear
11:55 PM 77.0 °F - 77.0 °F 100% 30.02 in 4.0 mi Calm Calm - N/A   Clear